Date,TemperatureHighF,TemperatureAvgF,TemperatureLowF,DewpointHighF,DewpointAvgF,DewpointLowF,HumidityHigh,HumidityAvg,HumidityLow,PressureMaxIn,PressureMinIn,WindSpeedMaxMPH,WindSpeedAvgMPH,GustSpeedMaxMPH,PrecipitationSumIn
2012-1-1,61.4,52.2,43.5,48.0,40.5,30.0,83,66,45,30.07,29.68,18,3,29,0.00
2012-1-2,49.6,39.9,33.0,28.0,18.6,13.0,59,43,34,29.88,29.76,19,6,31,0.00
2012-1-3,32.9,29.0,21.3,20.0,9.9,-3.0,61,46,24,30.20,29.88,17,7,28,0.00
2012-1-4,28.8,19.9,17.4,13.0,1.7,-5.0,57,46,35,30.26,30.18,14,3,20,0.00
2012-1-5,46.0,43.9,41.6,32.0,27.8,26.0,58,53,50,29.91,29.88,2,1,4,0.00
2012-1-6,64.0,50.9,39.7,33.0,30.0,26.0,64,47,30,29.88,29.74,10,3,14,0.00
2012-1-7,67.5,55.1,44.8,45.0,34.3,25.0,62,46,35,29.97,29.71,11,2,13,0.00
2012-1-8,51.3,46.4,38.4,33.0,27.7,24.0,62,49,36,30.27,29.97,9,3,18,0.00
2012-1-9,42.0,37.4,34.9,35.0,27.9,22.0,92,70,55,30.27,29.96,5,1,6,0.12
2012-1-10,54.5,43.8,34.3,38.0,33.4,30.0,93,70,40,29.98,29.90,9,2,14,0.00
2012-1-11,48.7,42.8,34.8,47.0,39.1,31.0,95,87,72,29.96,29.45,8,2,14,0.56
2012-1-12,60.8,52.6,44.3,49.0,46.6,41.0,96,81,63,29.46,29.32,8,3,17,0.26
2012-1-13,53.9,39.6,30.4,48.0,22.8,13.0,84,53,33,29.91,29.26,16,6,28,0.04
2012-1-14,38.3,32.3,28.3,19.0,15.4,14.0,66,51,40,30.06,29.91,9,3,15,0.00
2012-1-16,42.7,41.1,39.1,33.0,24.5,18.0,73,53,42,30.41,30.09,12,6,18,0.05
2012-1-17,59.8,50.8,41.3,52.0,42.8,32.0,88,75,61,30.08,29.61,17,5,21,0.22
2012-1-18,58.4,41.1,30.0,52.0,22.0,13.0,80,48,33,30.12,29.62,21,7,34,0.00
2012-1-19,41.8,35.2,26.3,25.0,18.5,13.0,77,51,42,30.16,29.86,15,4,19,0.00
2012-1-20,41.2,35.7,29.1,28.0,16.7,4.0,86,48,29,30.22,29.90,13,3,16,0.00
2012-1-21,33.4,31.3,28.4,30.0,27.9,25.0,93,87,79,30.22,29.87,11,3,14,0.00
2012-1-22,31.7,30.7,29.5,29.0,25.9,24.0,90,82,78,30.40,30.22,10,2,11,0.00
2012-1-23,45.1,38.0,31.8,43.0,35.6,29.0,95,91,83,30.28,29.85,13,2,17,0.30
2012-1-24,59.3,48.9,44.2,44.0,42.0,35.0,93,78,53,30.12,29.86,5,1,9,0.00
2012-1-25,46.6,46.4,46.2,35.0,35.0,35.0,66,66,65,30.14,30.13,4,4,6,0.00
2012-1-26,57.3,53.7,52.5,54.0,49.5,48.0,90,85,81,29.76,29.65,5,1,9,0.00
2012-1-27,65.5,56.9,44.1,60.0,46.5,28.0,90,70,49,29.94,29.38,22,6,35,0.34
2012-1-28,55.7,46.9,38.8,35.0,28.2,13.0,77,50,29,30.11,29.85,13,3,28,0.00
2012-1-29,50.1,43.4,37.1,30.0,13.6,7.0,71,31,20,30.21,29.98,14,4,32,0.00
2012-1-30,49.9,41.4,34.9,25.0,17.8,11.0,56,40,22,30.33,30.11,11,3,21,0.00
2012-1-31,66.4,54.3,44.3,34.0,28.8,23.0,53,39,25,30.16,29.99,13,4,17,0.00
2012-2-1,69.7,60.3,52.4,48.0,41.4,34.0,63,51,34,30.00,29.89,10,3,17,0.03
2012-2-2,58.2,52.1,43.5,49.0,40.9,29.0,87,67,45,30.26,29.89,12,4,21,0.09
2012-2-3,53.4,44.3,38.1,34.0,29.3,27.0,67,56,42,30.44,30.26,8,2,13,0.00
2012-2-4,46.1,40.7,36.2,36.0,33.9,30.0,92,77,54,30.29,30.04,6,2,10,0.10
2012-2-5,44.4,40.3,38.0,35.0,31.1,29.0,90,70,57,30.16,30.00,8,2,11,0.00
2012-2-6,54.2,45.0,35.7,34.0,30.3,25.0,81,58,34,30.19,29.98,13,2,15,0.00
2012-2-7,55.1,47.7,42.5,33.0,29.7,27.0,64,51,38,30.16,29.99,12,3,20,0.00
2012-2-8,42.4,39.8,38.1,32.0,29.2,28.0,72,66,58,30.20,30.16,5,1,11,0.00
2012-2-9,46.7,45.6,44.1,31.0,27.7,25.0,57,50,45,30.12,30.11,2,0,4,0.00
2012-2-10,48.9,42.5,34.8,35.0,26.6,22.0,82,54,40,30.11,29.83,8,2,12,0.00
2012-2-11,41.9,34.9,23.4,35.0,27.2,9.0,93,75,44,29.82,29.57,19,5,35,0.11
2012-2-12,32.3,27.3,22.8,19.0,11.2,7.0,84,52,40,30.07,29.81,21,8,36,0.01
2012-2-13,50.4,38.4,27.5,23.0,15.8,13.0,61,42,24,30.11,30.00,12,3,14,0.00
2012-2-14,55.7,48.7,41.3,33.0,27.2,19.0,62,44,36,30.02,29.86,12,2,16,0.00
2012-2-15,53.8,47.6,44.0,36.0,32.8,30.0,70,58,41,30.22,29.93,13,3,21,0.00
2012-2-16,48.9,46.4,43.5,43.0,38.2,32.0,86,73,60,30.23,29.94,4,1,11,0.09
2012-2-17,53.5,48.0,42.1,43.0,33.5,25.0,94,61,34,30.02,29.92,17,3,24,0.00
2012-2-18,59.9,50.0,38.1,35.0,30.3,22.0,77,48,33,30.06,29.81,12,4,18,0.00
2012-2-19,45.1,40.9,37.4,35.0,25.4,19.0,84,55,38,30.04,29.82,11,3,14,0.02
2012-2-20,49.9,41.7,34.4,35.0,23.4,18.0,83,51,29,30.28,29.89,12,3,16,0.00
2012-2-21,51.2,43.6,32.7,37.0,29.3,23.0,73,58,43,30.27,29.79,12,3,19,0.00
2012-2-22,63.7,54.6,45.9,41.0,36.5,30.0,75,53,29,29.79,29.40,13,4,20,0.00
2012-2-23,66.1,57.7,48.6,46.0,41.0,36.0,84,57,33,29.58,29.39,10,3,14,0.00
2012-2-24,56.6,52.4,46.3,53.0,44.6,26.0,93,76,36,29.61,29.28,20,3,27,0.41
2012-2-25,45.9,41.3,36.7,28.0,19.9,14.0,66,43,30,30.19,29.61,26,6,30,0.00
2012-2-26,51.2,42.2,35.0,28.0,20.7,18.0,60,43,30,30.40,30.19,10,3,16,0.00
2012-2-27,65.2,51.7,39.0,40.0,30.9,27.0,72,48,26,30.34,30.06,11,4,19,0.00
2012-2-28,58.8,49.6,40.9,39.0,24.2,20.0,58,38,24,30.40,30.18,14,4,22,0.00
2012-2-29,57.4,47.7,39.9,56.0,42.4,27.0,95,82,47,30.25,29.61,11,2,16,1.45
2012-3-1,68.3,59.1,47.2,57.0,46.2,31.0,95,67,33,29.91,29.54,10,3,15,0.07
2012-3-2,56.1,48.4,41.2,47.0,37.8,30.0,94,69,43,29.99,29.64,9,2,17,0.37
2012-3-3,62.0,53.1,47.8,49.0,38.0,17.0,94,64,21,29.66,29.46,10,3,16,0.23
2012-3-4,50.7,43.9,38.6,27.0,22.0,15.0,51,42,29,29.83,29.61,19,6,26,0.00
2012-3-5,43.2,39.1,34.6,29.0,22.5,13.0,66,52,37,30.40,29.84,11,4,24,0.00
2012-3-6,50.1,40.0,31.1,31.0,21.2,15.0,71,48,33,30.61,30.40,9,3,17,0.00
2012-3-7,67.7,54.1,41.5,46.0,36.4,29.0,66,53,36,30.50,30.27,13,5,23,0.00
2012-3-8,58.5,57.2,55.5,48.0,47.1,46.0,77,69,63,30.27,30.24,9,4,14,0.00
2012-3-9,58.0,50.4,42.3,25.0,21.7,18.0,40,33,25,30.29,30.04,20,8,26,0.00
2012-3-10,51.2,42.1,34.9,25.0,16.2,11.0,51,36,22,30.49,30.29,14,3,17,0.00
2012-3-11,64.7,51.3,38.7,33.0,28.7,23.0,66,44,27,30.49,30.30,14,3,14,0.00
2012-3-12,72.4,60.2,48.6,52.0,38.3,30.0,59,45,30,30.31,30.05,9,3,17,0.00
2012-3-13,81.9,69.1,59.9,57.0,54.1,51.0,81,61,37,30.04,29.88,10,5,16,0.00
2012-3-14,81.0,73.4,67.5,46.0,43.6,42.0,46,35,25,30.11,30.04,6,1,7,0.00
2012-3-15,86.4,69.6,56.6,56.0,50.4,45.0,78,53,24,30.12,30.01,8,2,13,0.00
2012-3-16,60.3,55.7,51.0,55.0,51.3,48.0,92,85,75,30.12,30.06,9,2,10,0.03
2012-3-17,75.1,64.4,52.6,57.0,54.8,50.0,93,73,51,30.23,30.10,5,2,11,0.01
2012-3-18,70.7,59.4,52.4,56.0,53.0,50.0,92,80,60,30.30,30.13,7,2,10,0.00
2012-3-19,76.4,64.9,57.2,61.0,56.4,53.0,88,75,56,30.14,30.04,6,2,10,0.00
2012-3-20,72.4,66.7,62.1,63.0,60.7,58.0,94,81,66,30.18,30.09,6,1,9,0.07
2012-3-21,70.9,63.4,58.6,61.0,59.3,58.0,96,87,72,30.25,30.16,6,1,8,0.00
2012-3-22,81.1,68.4,60.1,63.0,60.9,58.0,95,79,53,30.19,30.00,5,1,10,0.00
2012-3-23,66.7,64.5,62.4,62.0,60.5,59.0,89,86,83,30.02,29.99,2,0,5,0.00
2012-3-24,62.2,59.5,55.7,60.0,57.5,54.0,96,93,89,29.88,29.78,8,3,13,0.16
2012-3-25,63.3,56.5,52.1,55.0,52.5,50.0,96,87,71,29.77,29.67,8,2,11,0.12
2012-3-26,61.3,57.2,45.3,55.0,33.3,13.0,82,46,21,30.13,29.70,23,7,31,0.00
2012-3-27,57.2,44.8,36.1,29.0,13.7,9.0,43,30,16,30.30,30.12,10,4,15,0.00
2012-3-28,70.0,55.8,48.0,56.0,37.1,22.0,63,50,34,30.12,29.58,8,3,13,0.01
2012-3-29,70.9,60.5,51.8,54.0,37.6,33.0,60,43,29,29.96,29.61,15,5,26,0.00
2012-3-30,53.9,48.9,43.5,42.0,35.5,31.0,77,61,50,30.06,29.78,6,2,9,0.00
2012-3-31,63.5,53.7,48.2,50.0,45.7,42.0,87,75,61,29.83,29.67,8,3,14,0.00
2012-4-1,65.0,55.3,47.1,50.0,44.3,41.0,84,68,49,29.84,29.50,15,2,15,0.02
2012-4-2,61.7,55.5,47.5,53.0,34.7,26.0,91,50,26,29.85,29.47,17,5,22,0.09
2012-4-3,72.5,58.5,41.7,40.0,26.6,11.0,80,37,11,29.97,29.71,8,2,15,0.00
2012-4-4,76.9,64.8,54.5,52.0,41.3,23.0,60,44,19,29.71,29.48,15,3,19,0.00
2012-4-5,64.9,56.5,47.8,37.0,28.0,23.0,59,35,22,29.82,29.64,9,3,14,0.00
2012-4-6,61.7,52.1,41.8,34.0,24.2,19.0,56,36,19,30.00,29.81,16,4,20,0.00
2012-4-7,65.6,55.8,44.3,22.0,18.5,13.0,39,24,16,30.14,29.98,14,4,22,0.00
2012-4-8,72.5,60.9,49.6,36.0,26.9,21.0,39,28,15,30.03,29.73,11,5,27,0.00
2012-4-9,63.5,57.2,54.2,37.0,27.9,22.0,50,33,27,29.86,29.77,13,4,24,0.00
2012-4-10,65.9,56.9,48.7,40.0,31.6,23.0,67,42,20,29.82,29.61,14,4,20,0.00
2012-4-11,55.1,47.4,41.3,35.0,28.8,23.0,67,50,31,29.96,29.80,23,5,25,0.00
2012-4-12,59.3,50.9,42.4,35.0,31.9,26.0,71,51,29,30.10,29.96,12,4,18,0.00
2012-4-13,66.9,56.3,47.1,35.0,30.6,27.0,57,39,22,30.20,30.09,12,3,19,0.00
2012-4-14,75.6,64.2,49.9,45.0,39.0,34.0,72,43,22,30.19,29.97,14,3,18,0.00
2012-4-15,86.1,73.8,63.4,57.0,50.5,45.0,56,45,32,30.01,29.91,10,3,15,0.00
2012-4-16,89.1,77.9,66.8,64.0,59.0,56.0,78,55,33,29.97,29.83,13,4,19,0.00
2012-4-17,76.7,71.2,64.2,59.0,43.3,33.0,60,38,22,30.13,29.89,12,4,18,0.00
2012-4-18,64.0,58.6,52.8,49.0,40.0,36.0,84,53,36,30.19,30.07,9,2,11,0.08
2012-4-19,74.3,61.1,50.7,49.0,48.1,45.0,90,65,41,30.07,29.93,5,1,8,0.00
2012-4-20,77.0,64.8,52.6,55.0,52.2,49.0,91,66,42,29.95,29.75,8,2,12,0.00
2012-4-21,82.8,67.7,58.2,60.0,56.4,50.0,87,70,33,29.75,29.53,15,3,24,0.16
2012-4-22,58.1,51.1,46.5,53.0,47.3,44.0,92,87,78,29.72,29.32,12,5,23,1.29
2012-4-23,48.6,44.6,41.3,44.0,39.5,36.0,92,82,63,29.48,29.27,12,4,19,0.13
2012-4-24,63.7,54.2,44.7,41.0,30.3,19.0,85,46,20,29.66,29.44,9,3,19,0.00
2012-4-25,70.8,58.7,44.4,42.0,33.7,25.0,84,44,19,29.80,29.67,10,2,17,0.00
2012-4-26,67.1,61.1,56.5,60.0,52.9,39.0,90,75,51,29.80,29.53,11,2,19,0.01
2012-4-27,63.9,56.7,50.2,54.0,32.6,25.0,69,42,24,30.11,29.65,16,6,30,0.00
2012-4-28,58.5,51.9,45.2,44.8,33.7,25.0,86,53,31,30.23,30.12,8,1,9,0.14
2012-4-29,71.6,57.6,46.2,45.9,39.5,28.8,92,58,21,30.15,30.13,11,2,12,0.08
2012-4-30,68.4,58.0,48.6,51.8,42.6,29.8,78,57,41,30.26,30.05,9,2,11,0.00
2012-5-1,85.6,71.8,60.8,64.8,59.4,48.6,92,67,40,30.05,29.90,12,2,14,0.18
2012-5-2,76.5,67.1,59.2,63.0,60.5,54.3,89,80,63,30.06,29.89,10,1,11,0.01
2012-5-3,84.6,67.6,56.1,67.1,58.8,53.2,91,75,50,30.12,29.94,9,2,11,0.00
2012-5-4,84.6,74.3,64.9,69.6,63.9,58.5,91,71,47,29.99,29.80,16,2,21,0.00
2012-5-5,84.4,73.0,65.1,66.2,63.8,60.4,90,74,53,29.93,29.78,11,2,14,0.00
2012-5-6,74.1,66.7,61.0,60.6,58.9,56.1,92,77,61,30.02,29.91,8,1,9,0.01
2012-5-7,73.0,64.6,57.9,56.5,52.6,41.5,87,67,44,30.05,29.94,15,3,15,0.00
2012-5-8,75.0,68.2,60.8,64.9,58.5,46.6,84,71,55,29.98,29.73,16,4,20,0.06
2012-5-9,75.4,67.9,58.6,65.7,59.8,54.7,91,77,51,29.74,29.58,23,3,23,0.78
2012-5-10,68.5,61.3,55.0,56.7,45.1,36.7,90,59,32,29.87,29.54,22,5,26,0.00
2012-5-11,74.1,63.7,52.5,42.8,36.9,29.3,59,39,22,30.12,29.88,18,4,18,0.00
2012-5-12,81.9,69.6,54.5,53.2,43.2,31.1,76,42,19,30.24,30.12,10,2,12,0.00
2012-5-13,82.6,72.5,63.5,59.0,55.5,52.2,69,56,40,30.14,30.03,15,4,17,0.00
2012-5-14,72.9,67.1,62.1,64.4,61.3,56.5,93,82,60,30.06,29.94,12,3,20,0.34
2012-5-15,81.9,72.3,65.7,67.5,64.8,61.9,95,79,55,29.95,29.83,12,1,14,1.11
2012-5-16,85.3,74.4,64.8,65.1,60.9,52.7,92,67,34,29.87,29.78,10,2,10,0.00
2012-5-17,76.1,68.3,62.8,64.8,52.4,38.5,81,59,27,30.05,29.85,12,3,14,0.00
2012-5-18,78.3,66.8,54.5,52.3,47.4,39.9,83,53,27,30.12,30.04,10,2,13,0.00
2012-5-19,85.3,70.1,56.1,54.1,47.3,42.3,70,46,27,30.12,30.01,12,1,13,0.00
2012-5-20,83.8,72.3,60.3,64.8,52.9,38.7,90,53,30,30.11,30.02,16,2,16,0.00
2012-5-21,76.6,68.8,64.6,67.3,64.6,62.6,95,87,71,30.02,29.83,10,2,12,0.12
2012-5-22,81.7,70.8,65.5,66.2,64.1,62.4,92,80,58,29.85,29.73,8,1,8,0.02
2012-5-23,82.4,72.7,66.6,68.9,65.6,62.2,89,79,60,29.91,29.76,8,1,11,0.08
2012-5-24,85.5,75.3,67.8,67.5,65.2,61.7,94,73,48,30.02,29.90,16,2,16,0.00
2012-5-25,90.0,78.8,71.4,71.4,68.4,66.7,89,72,49,30.07,30.00,12,2,18,0.00
2012-5-26,90.9,79.6,70.3,71.1,68.2,63.1,90,70,48,30.10,30.00,12,3,13,0.00
2012-5-27,90.0,79.4,71.2,69.6,66.9,60.3,88,68,40,30.11,29.97,20,4,25,0.14
2012-5-28,95.4,81.9,71.1,72.7,68.3,63.9,85,65,43,30.00,29.86,12,3,14,0.00
2012-5-29,91.2,81.4,70.7,72.1,69.8,66.0,92,70,50,29.87,29.66,17,5,23,0.47
2012-5-30,87.4,76.6,69.1,70.0,62.8,53.1,92,65,33,29.75,29.63,8,2,9,0.00
2012-5-31,85.6,77.4,69.4,63.0,54.7,48.4,72,48,29,29.84,29.65,13,3,14,0.00
2012-6-1,82.2,72.6,63.1,70.2,64.6,56.5,94,77,59,29.83,29.59,14,2,21,1.34
2012-6-2,75.6,68.1,61.0,62.1,51.1,44.2,93,58,35,29.77,29.64,17,3,18,0.00
2012-6-3,80.4,71.0,60.1,52.9,50.3,46.6,74,49,33,29.78,29.64,17,2,19,0.00
2012-6-4,73.9,69.3,63.3,55.6,50.4,45.1,70,52,38,29.69,29.59,21,5,25,0.00
2012-6-5,71.4,63.8,58.3,55.0,50.5,45.3,88,64,41,29.89,29.69,11,2,13,0.00
2012-6-6,77.4,66.4,56.7,56.8,51.6,46.0,85,61,34,29.95,29.88,10,2,13,0.00
2012-6-7,81.9,70.9,59.7,57.9,53.1,47.1,85,57,32,29.96,29.86,21,3,21,0.00
2012-6-8,85.1,75.9,63.7,57.4,52.4,46.6,67,46,28,29.96,29.84,14,3,16,0.00
2012-6-9,92.1,81.1,69.3,60.4,54.2,44.1,63,42,21,29.94,29.86,13,2,13,0.00
2012-6-10,96.1,84.2,69.3,62.6,59.2,54.1,77,46,25,30.04,29.93,11,2,12,0.00
2012-6-11,90.5,81.9,73.8,66.4,62.9,57.2,76,54,36,30.07,29.99,14,3,18,0.00
2012-6-12,78.3,74.5,69.1,72.9,69.3,63.5,91,84,61,30.00,29.75,12,3,17,0.27
2012-6-13,81.3,74.2,69.4,68.7,57.9,46.9,88,60,31,29.98,29.76,13,5,19,0.00
2012-6-14,84.4,74.2,67.1,63.0,58.7,53.4,77,59,43,30.16,29.98,12,3,15,0.00
2012-6-15,83.1,73.5,63.1,61.3,57.1,52.5,89,60,38,30.21,30.14,11,2,14,0.00
2012-6-16,83.8,73.2,62.1,57.4,53.2,49.6,76,51,33,30.27,30.12,15,2,15,0.00
2012-6-17,79.3,70.1,59.9,59.0,55.9,50.9,78,61,49,30.15,29.99,11,2,14,0.00
2012-6-18,71.6,67.0,62.4,63.1,60.2,56.8,91,79,68,30.05,29.98,12,2,12,0.28
2012-6-19,91.8,78.8,68.7,73.2,67.3,62.2,83,69,47,30.08,29.99,8,2,11,0.00
2012-6-20,98.1,86.7,74.8,72.3,69.5,64.4,88,60,36,30.07,29.93,10,2,11,0.00
2012-6-21,100.8,90.0,79.0,72.7,69.3,64.6,78,53,34,29.94,29.75,11,2,12,0.00
2012-6-22,95.7,85.8,72.9,73.0,68.3,61.3,81,57,34,29.79,29.67,24,3,28,0.00
2012-6-23,88.5,80.9,72.9,69.1,62.5,52.7,86,57,30,29.94,29.79,12,3,13,0.00
2012-6-24,91.9,82.9,72.3,66.7,60.6,55.6,69,49,31,29.95,29.81,11,2,11,0.00
2012-6-25,86.7,79.3,70.3,69.1,59.5,42.8,78,53,27,29.81,29.62,23,5,23,0.00
2012-6-26,80.2,71.5,61.3,49.6,46.8,43.2,58,42,31,29.83,29.72,18,5,22,0.00
2012-6-27,87.4,77.2,66.0,59.7,52.0,47.8,57,42,29,29.86,29.76,21,4,21,0.00
2012-6-28,96.1,84.4,71.1,62.4,57.7,53.4,65,42,26,29.84,29.69,13,2,17,0.00
2012-6-29,101.8,88.6,70.5,75.7,69.1,62.1,94,54,39,29.81,29.60,42,3,45,0.72
2012-6-30,97.5,84.3,71.1,70.7,67.4,59.9,95,61,31,29.78,29.67,12,2,13,0.02
2012-7-1,97.7,89.1,78.4,73.4,69.1,61.0,81,54,31,29.83,29.71,16,3,19,0.00
2012-7-2,93.4,86.1,77.7,68.5,62.3,58.1,62,46,33,29.90,29.80,18,3,18,0.00
2012-7-3,97.7,86.9,77.9,69.6,63.2,54.9,73,48,25,29.90,29.79,18,2,18,0.05
2012-7-4,99.0,86.2,75.4,74.3,68.3,62.2,76,57,39,29.85,29.73,18,3,18,0.00
2012-7-5,99.0,89.6,80.4,71.2,67.8,61.9,63,50,37,29.80,29.71,17,3,17,0.00
2012-7-6,100.8,90.6,82.0,71.2,65.7,57.4,65,46,27,29.88,29.78,10,2,11,0.00
2012-7-7,103.6,93.6,82.6,75.6,70.6,52.5,77,50,20,29.85,29.75,15,3,16,0.00
2012-7-8,100.8,91.1,85.6,76.3,73.3,70.3,71,57,41,29.80,29.71,14,2,17,0.00
2012-7-9,88.0,79.6,73.2,75.7,67.8,59.2,91,69,40,29.91,29.77,10,2,14,0.46
2012-7-10,92.8,80.4,69.3,71.4,67.3,59.5,96,68,35,29.99,29.88,17,2,21,1.68
2012-7-11,90.1,79.3,70.3,71.6,65.9,53.6,96,67,32,30.09,29.97,12,2,18,0.00
2012-7-12,89.6,77.7,69.6,66.2,62.5,57.0,82,61,36,30.13,30.09,9,1,10,0.00
2012-7-13,90.5,80.9,75.9,66.0,62.1,57.7,63,53,36,30.15,30.08,7,1,8,0.00
2012-7-14,83.8,77.3,68.7,75.0,67.1,58.6,86,72,48,30.14,30.05,9,2,13,0.18
2012-7-15,97.2,82.8,76.5,75.6,72.7,69.3,89,74,43,30.08,29.91,16,2,19,0.02
2012-7-16,94.8,84.4,75.9,73.2,70.6,66.0,81,65,44,29.95,29.76,11,2,18,0.01
2012-7-17,100.8,89.3,79.3,73.8,67.6,61.3,75,52,30,29.85,29.73,12,3,13,0.00
2012-7-18,103.8,86.6,73.9,74.5,71.6,68.9,93,63,33,29.86,29.73,25,2,32,0.46
2012-7-19,97.2,84.7,73.0,74.3,70.5,67.5,95,64,39,29.88,29.75,18,2,24,0.84
2012-7-20,80.4,75.3,69.8,73.9,71.4,66.2,96,88,75,29.92,29.77,10,2,12,0.14
2012-7-21,69.4,67.6,65.5,67.3,65.5,63.5,95,93,90,30.06,29.94,9,2,11,0.35
2012-7-22,84.7,73.7,67.5,71.6,68.1,65.5,95,83,62,30.12,30.04,7,1,8,0.00
2012-7-23,89.6,86.5,76.5,75.2,70.9,68.5,82,60,51,30.06,29.83,10,2,12,0.00
2012-7-24,90.9,83.1,75.7,74.8,71.6,69.4,82,69,56,29.83,29.63,15,3,15,0.00
2012-7-25,89.6,81.0,72.5,70.0,57.7,50.7,73,47,29,29.89,29.70,10,3,14,0.00
2012-7-26,99.9,86.0,74.7,76.1,70.6,59.7,81,62,42,29.79,29.59,22,4,23,0.00
2012-7-27,92.5,85.2,77.7,72.9,70.3,67.8,81,62,47,29.81,29.66,14,3,16,0.00
2012-7-28,93.7,84.2,74.1,72.7,68.9,64.0,84,62,41,29.86,29.77,12,2,13,0.03
2012-7-29,88.9,80.7,72.7,71.4,66.7,62.8,83,63,44,29.96,29.84,11,3,13,0.00
2012-7-30,91.4,81.2,72.9,73.0,69.1,65.3,88,68,45,30.01,29.92,13,2,17,0.00
2012-7-31,90.0,79.6,72.7,75.6,69.7,66.7,90,73,48,29.97,29.81,10,2,12,0.35
2012-8-1,90.7,80.1,73.0,72.1,69.5,66.9,87,71,48,29.85,29.73,8,2,9,0.00
2012-8-2,96.3,83.2,72.9,75.0,71.3,67.6,90,69,41,29.86,29.77,13,2,13,0.00
2012-8-3,95.4,85.0,75.7,75.4,71.6,67.3,83,66,41,30.01,29.85,13,3,14,0.00
2012-8-4,96.6,87.2,78.8,75.6,71.8,66.7,85,63,40,30.08,30.00,18,4,18,0.00
2012-8-5,95.2,84.5,78.4,74.3,72.6,69.1,82,69,44,30.09,29.94,19,4,21,0.06
2012-8-6,91.9,83.7,78.8,74.5,70.8,64.0,82,67,41,30.00,29.90,10,2,11,0.00
2012-8-7,90.7,81.7,75.7,73.9,71.7,67.8,86,73,50,29.94,29.87,8,1,10,0.00
2012-8-8,92.1,82.3,75.4,74.1,71.2,66.7,90,71,47,29.92,29.85,10,2,12,0.00
2012-8-9,97.0,84.2,74.5,73.6,69.5,62.1,91,64,35,29.88,29.75,14,2,15,0.00
2012-8-10,87.3,79.4,70.7,73.6,70.4,66.2,94,75,57,29.79,29.65,15,3,17,0.92
2012-8-11,89.2,79.0,70.9,72.3,68.8,65.5,90,73,48,29.84,29.71,13,3,16,0.29
2012-8-12,86.7,78.4,71.4,71.1,62.0,57.0,87,59,39,29.94,29.83,10,2,12,0.00
2012-8-13,91.6,80.8,69.8,68.7,63.0,58.8,80,56,34,29.99,29.86,11,2,12,0.00
2012-8-14,91.6,81.5,72.5,72.7,69.8,63.3,91,69,41,29.89,29.74,10,2,12,0.20
2012-8-15,85.6,79.0,73.6,70.2,67.2,64.9,84,68,54,29.83,29.76,10,3,12,0.00
2012-8-16,89.4,80.0,69.6,67.1,61.8,55.4,80,57,34,29.92,29.81,16,2,17,0.00
2012-8-17,92.5,81.6,72.7,69.3,64.5,59.7,87,58,34,29.86,29.69,18,3,19,0.02
2012-8-18,84.0,76.0,68.4,69.3,61.6,55.4,92,64,40,29.86,29.77,12,2,13,0.13
2012-8-19,76.5,71.7,68.4,68.2,63.3,58.1,89,75,61,29.90,29.82,8,1,8,0.19
2012-8-20,81.9,72.4,66.6,66.0,64.1,60.6,92,76,53,29.90,29.77,10,1,14,0.09
2012-8-21,85.5,72.4,64.2,68.9,63.0,57.4,92,75,41,30.03,29.90,8,1,9,0.26
2012-8-22,85.8,74.5,66.4,66.6,64.0,61.2,93,71,48,30.08,30.01,11,1,11,0.00
2012-8-23,90.0,78.3,67.8,67.8,63.8,58.8,89,64,39,30.09,30.02,9,1,11,0.00
2012-8-24,89.4,79.2,69.6,67.5,64.5,60.8,84,62,40,30.10,30.04,8,1,10,0.00
2012-8-25,81.0,74.8,70.5,67.6,65.9,59.5,87,74,51,30.13,30.07,13,2,15,0.05
2012-8-26,85.5,73.5,69.6,73.2,69.0,66.7,93,86,63,30.14,30.08,14,2,19,0.21
2012-8-27,90.0,79.3,69.4,73.2,69.1,66.7,94,73,50,30.09,29.90,13,2,13,0.00
2012-8-28,89.8,81.2,74.7,73.6,67.0,59.0,89,65,37,29.90,29.81,16,3,16,0.03
2012-8-29,87.3,77.7,69.8,64.6,60.5,51.6,75,57,32,29.96,29.84,10,2,11,0.00
2012-8-30,91.6,79.0,67.5,71.2,64.0,59.7,83,63,36,30.05,29.95,11,1,12,0.00
2012-8-31,96.6,84.8,74.3,72.0,66.8,55.8,87,59,30,30.05,29.92,16,3,17,0.00
2012-9-1,84.0,79.4,73.6,70.9,69.6,68.7,88,72,63,29.97,29.93,6,0,6,0.23
2012-9-2,84.9,78.1,73.0,74.5,71.8,69.6,94,82,66,29.97,29.88,11,1,11,1.01
2012-9-3,86.0,79.1,73.0,75.2,72.3,70.5,95,81,63,29.98,29.92,13,2,13,0.01
2012-9-4,90.0,81.4,75.6,74.5,73.0,70.9,89,76,55,29.95,29.79,19,3,19,0.00
2012-9-5,92.5,82.6,78.3,76.1,73.2,69.1,84,74,50,29.80,29.70,14,3,14,0.00
2012-9-6,85.5,78.1,73.8,75.2,72.0,68.9,92,82,65,29.87,29.75,12,2,12,0.19
2012-9-7,91.8,80.9,71.2,72.7,69.4,67.6,91,70,48,29.88,29.75,13,2,13,0.00
2012-9-8,90.7,75.6,64.8,72.5,68.9,61.2,96,81,52,29.80,29.51,27,4,32,0.79
2012-9-9,79.9,70.6,61.9,61.2,54.5,47.8,84,60,35,29.90,29.75,15,4,15,0.00
2012-9-10,75.9,68.0,60.6,54.1,49.9,44.2,75,54,33,30.10,29.89,19,4,19,0.00
2012-9-11,79.7,67.5,55.6,54.7,48.8,42.1,88,55,29,30.25,30.10,10,1,10,0.00
2012-9-12,82.8,71.0,59.5,57.0,54.3,49.8,83,58,33,30.30,30.22,11,2,12,0.00
2012-9-13,83.5,71.1,58.8,60.8,56.9,51.6,89,64,35,30.31,30.19,6,1,10,0.00
2012-9-14,84.4,73.0,60.4,66.6,61.1,56.3,88,68,46,30.21,30.04,11,2,11,0.00
2012-9-15,77.2,70.5,63.9,66.0,51.4,46.4,83,53,36,30.17,30.03,20,4,20,0.00
2012-9-16,76.6,67.9,61.3,55.9,52.5,49.5,77,59,43,30.11,30.00,9,1,10,0.00
2012-9-17,75.6,68.2,57.6,66.0,59.7,54.1,91,75,62,30.05,29.90,11,2,13,0.01
2012-9-18,79.5,71.7,63.7,71.6,67.9,57.7,93,88,74,29.90,29.51,27,5,28,0.98
2012-9-19,71.2,65.1,59.2,58.6,49.2,43.7,81,58,38,30.10,29.75,15,3,19,0.00
2012-9-20,77.4,65.5,54.0,54.9,52.1,47.5,87,64,42,30.11,29.98,12,1,12,0.00
2012-9-21,82.2,69.7,56.8,62.8,58.3,52.7,90,69,49,30.02,29.88,13,2,14,0.00
2012-9-22,85.5,74.1,65.3,65.1,61.9,54.3,86,67,47,29.88,29.70,17,4,17,0.00
2012-9-23,70.3,63.2,55.8,54.3,44.2,39.7,66,51,36,30.09,29.84,21,4,21,0.00
2012-9-24,69.6,62.5,56.5,49.6,43.2,36.0,75,51,31,30.17,30.07,16,2,16,0.00
2012-9-25,76.8,66.1,55.0,56.5,50.3,43.0,78,58,37,30.14,29.99,15,4,17,0.00
2012-9-26,85.5,74.1,65.1,64.9,60.5,56.3,77,64,45,30.07,29.98,18,4,20,0.00
2012-9-27,86.2,74.8,66.7,66.7,63.2,60.6,89,69,47,30.10,29.99,12,2,12,0.22
2012-9-28,79.2,71.7,65.8,68.4,61.6,52.2,94,72,52,30.04,29.90,14,2,15,0.40
2012-9-29,70.5,64.2,58.5,53.6,49.6,45.3,75,60,42,29.96,29.84,13,3,14,0.00
2012-9-30,75.6,63.2,54.5,55.2,49.7,45.1,89,64,35,29.86,29.72,19,2,20,0.04
2012-10-1,74.1,63.3,54.3,57.6,51.6,45.9,87,68,38,29.90,29.82,10,1,10,0.00
2012-10-2,70.2,67.0,63.1,68.5,64.1,56.3,97,91,76,29.88,29.81,10,1,10,0.57
2012-10-3,83.8,75.0,69.3,70.2,68.6,65.5,97,82,57,30.04,29.86,10,1,11,0.01
2012-10-4,79.9,75.0,69.3,71.6,66.2,56.5,93,75,54,30.07,30.01,13,2,16,0.00
2012-10-5,83.1,72.2,62.4,60.4,57.0,54.1,83,60,39,30.06,29.88,13,2,14,0.00
2012-10-6,80.4,66.4,56.1,62.6,54.9,43.7,86,68,48,29.98,29.76,20,4,21,0.00
2012-10-7,56.7,52.7,49.6,49.6,45.2,40.8,92,76,60,30.11,29.96,8,1,8,0.12
2012-10-8,54.1,49.7,45.1,46.8,42.5,39.4,90,77,58,30.24,30.10,9,2,9,0.00
2012-10-9,62.2,54.7,46.9,53.4,48.7,43.5,90,81,68,30.14,30.00,10,2,10,0.12
2012-10-10,70.5,62.1,56.3,54.7,50.2,42.6,91,67,43,30.03,29.81,20,3,20,0.00
2012-10-11,64.2,55.2,48.0,45.0,37.2,31.5,76,52,33,30.24,30.03,14,3,14,0.00
2012-10-12,64.9,55.5,46.9,47.1,40.1,32.5,89,58,38,30.37,30.07,23,3,23,0.00
2012-10-13,61.5,51.2,40.6,40.8,33.7,28.6,75,53,34,30.47,30.23,11,2,11,0.00
2012-10-14,75.4,63.0,52.0,57.9,50.4,40.8,82,65,44,30.23,29.87,20,4,20,0.00
2012-10-15,70.9,66.3,57.4,63.9,58.5,48.4,87,76,65,29.87,29.59,16,4,16,0.06
2012-10-16,63.9,57.3,51.1,48.7,44.0,40.8,83,62,44,29.86,29.74,18,3,18,0.00
2012-10-17,70.2,58.1,46.2,53.2,47.4,42.6,93,70,43,29.96,29.85,11,1,11,0.00
2012-10-18,72.0,63.0,54.3,60.1,54.1,50.5,89,74,54,29.90,29.73,18,3,18,0.00
2012-10-19,77.4,66.8,60.4,65.3,61.2,54.5,93,83,57,29.75,29.52,17,2,17,0.37
2012-10-20,68.4,60.3,52.2,55.6,46.0,39.9,91,61,43,29.86,29.60,13,2,14,0.00
2012-10-21,65.8,58.0,50.7,44.8,41.5,39.4,78,55,39,30.07,29.86,15,3,15,0.00
2012-10-22,72.3,60.3,47.5,52.3,44.0,37.8,87,57,31,30.14,30.03,12,1,12,0.00
2012-10-23,81.1,67.3,56.3,57.7,52.8,48.6,81,62,38,30.07,29.96,8,1,8,0.00
2012-10-24,83.3,71.3,61.5,59.9,55.9,50.2,81,61,33,30.06,29.97,9,1,9,0.00
2012-10-25,71.2,65.3,62.1,60.8,59.4,57.7,90,82,66,30.15,30.05,8,1,9,0.00
2012-10-26,71.1,65.1,62.1,61.0,59.4,57.9,91,82,66,30.12,29.98,9,2,10,0.00
2012-10-27,70.2,62.9,58.5,58.3,54.5,46.0,92,75,43,29.98,29.78,12,3,16,0.00
2012-10-28,61.5,58.1,53.8,53.6,49.3,42.6,90,73,55,29.78,29.50,19,5,21,0.13
2012-10-29,54.7,50.2,45.3,51.4,47.9,43.3,95,92,88,29.50,28.53,40,10,41,4.52
2012-10-30,46.4,43.6,41.5,43.7,40.9,38.8,93,90,86,29.41,28.57,26,4,27,1.06
2012-10-31,55.4,49.0,43.2,43.3,40.0,35.6,91,72,52,29.59,29.40,13,2,13,0.00
2012-11-1,52.3,49.3,46.0,39.6,36.8,35.2,75,62,56,29.68,29.59,13,2,14,0.00
2012-11-2,53.4,48.6,45.5,40.3,33.8,30.9,77,57,45,29.87,29.68,21,4,21,0.00
2012-11-3,48.9,46.5,44.4,34.0,31.8,30.0,65,56,52,30.01,29.86,21,5,22,0.00
2012-11-4,52.0,45.3,40.8,38.8,31.1,28.8,82,58,44,30.03,29.93,14,3,14,0.00
2012-11-5,50.2,44.0,37.8,31.6,28.3,26.2,65,54,43,30.12,29.97,15,4,15,0.00
2012-11-6,48.2,40.9,34.2,32.9,27.9,24.8,71,60,44,30.16,29.94,13,2,13,0.00
2012-11-7,45.1,41.9,39.6,32.2,29.1,26.8,70,60,55,29.95,29.81,16,4,16,0.04
2012-11-8,54.9,46.9,40.5,30.6,21.5,12.7,64,38,19,29.99,29.81,24,6,24,0.00
2012-11-9,57.6,49.1,41.9,43.2,34.5,30.4,74,58,42,30.16,29.98,18,3,18,0.00
2012-11-10,68.0,53.1,40.6,44.8,40.3,35.2,88,64,37,30.31,30.16,7,0,7,0.00
2012-11-11,72.3,57.4,43.9,47.5,44.0,39.9,90,64,33,30.40,30.29,13,1,13,0.00
2012-11-12,72.9,62.3,49.3,59.5,53.2,45.5,89,73,56,30.35,30.07,14,3,15,0.00
2012-11-13,65.1,46.2,39.6,59.5,36.3,27.5,91,70,47,30.42,30.07,27,5,27,0.52
2012-11-14,48.4,41.8,36.3,36.7,28.5,25.5,78,60,45,30.49,30.36,15,2,16,0.00
2012-11-15,50.4,44.9,40.1,36.5,33.4,28.9,77,64,56,30.37,30.23,11,2,11,0.00
2012-11-16,54.0,46.5,41.7,33.8,31.0,28.0,70,55,37,30.37,30.23,12,2,13,0.00
2012-11-17,55.2,46.4,38.1,37.8,29.0,22.6,71,52,29,30.53,30.37,14,2,15,0.00
2012-11-18,53.1,47.1,41.7,40.5,38.3,35.2,84,72,60,30.54,30.43,14,3,14,0.00
2012-11-19,56.7,49.8,46.6,41.7,39.0,35.8,74,67,56,30.43,30.15,11,3,12,0.00
2012-11-20,56.3,50.2,46.2,44.4,41.2,37.0,87,72,61,30.15,30.02,7,1,7,0.00
2012-11-21,58.1,49.6,41.2,44.1,34.8,27.1,88,60,31,30.15,30.06,10,1,10,0.00
2012-11-22,60.1,49.4,38.7,42.6,34.2,27.7,84,58,30,30.22,30.08,8,1,9,0.00
2012-11-23,62.8,52.3,40.3,41.9,35.9,29.8,86,56,35,30.09,29.70,24,2,24,0.00
2012-11-24,50.7,40.4,36.5,30.2,21.5,19.4,54,47,42,29.98,29.75,24,6,25,0.00
2012-11-25,46.0,39.4,35.2,33.8,23.5,18.0,78,53,41,30.02,29.88,13,2,15,0.00
2012-11-26,57.2,47.0,35.1,36.0,30.6,25.7,81,54,35,30.15,29.93,9,1,9,0.00
2012-11-27,45.7,41.6,37.2,40.5,36.6,33.1,90,83,66,30.20,30.09,15,3,16,0.08
2012-11-28,48.6,42.5,38.7,34.0,26.5,21.6,83,54,36,30.31,30.17,19,3,19,0.08
2012-11-29,52.0,44.6,38.1,34.9,27.4,22.5,74,52,33,30.39,30.27,13,2,14,0.00
2012-11-30,54.0,45.3,34.9,38.1,33.1,28.6,82,63,40,30.31,30.23,9,1,9,0.00
2012-12-1,52.2,44.4,38.3,43.5,38.6,33.3,92,80,69,30.38,30.27,12,1,12,0.00
2012-12-2,58.8,49.7,37.6,51.1,43.6,35.8,95,80,67,30.32,30.06,11,1,11,0.00
2012-12-3,71.8,60.8,50.2,55.8,51.8,46.4,90,73,56,30.19,30.06,7,1,7,0.00
2012-12-4,72.9,63.3,57.0,55.2,52.8,50.4,85,70,49,30.17,29.94,13,2,14,0.00
2012-12-5,63.7,55.0,40.5,50.9,37.3,24.4,69,52,35,30.24,29.91,21,6,21,0.00
2012-12-6,48.6,40.0,34.2,32.2,25.4,21.7,70,56,41,30.33,30.18,12,2,12,0.00
2012-12-7,52.2,46.6,40.1,47.3,39.3,30.4,88,76,67,30.18,29.90,11,2,11,0.03
2012-12-8,55.8,52.3,50.2,51.3,49.1,46.9,93,89,84,29.95,29.83,10,1,10,0.00
2012-12-9,52.5,50.4,48.4,50.7,48.5,46.6,96,93,88,30.11,29.91,15,1,15,0.23
2012-12-10,63.9,57.3,48.9,60.1,54.9,47.8,97,92,83,29.91,29.51,15,2,15,0.01
2012-12-11,61.2,47.6,42.4,57.4,35.9,29.8,89,64,49,30.16,29.56,18,5,24,0.06
2012-12-12,46.9,42.7,39.9,30.4,28.9,26.8,64,58,48,30.37,30.15,8,3,12,0.00
2012-12-13,50.4,42.7,37.0,34.2,26.7,22.1,75,54,36,30.40,30.28,12,2,13,0.00
2012-12-14,55.2,46.0,34.2,40.1,33.1,27.7,86,62,40,30.28,30.14,9,1,9,0.00
2012-12-15,54.5,47.2,39.0,39.0,35.2,30.0,85,64,44,30.24,30.06,9,1,9,0.00
2012-12-16,51.6,49.4,46.6,47.7,44.5,38.7,91,83,68,30.08,29.76,9,1,10,0.14
2012-12-17,54.7,51.5,49.3,53.2,49.4,47.1,95,93,89,29.79,29.48,11,1,11,0.06
2012-12-18,60.4,52.6,45.0,53.8,42.6,31.6,95,71,47,29.75,29.46,28,4,28,0.00
2012-12-19,53.2,48.0,40.3,39.9,36.3,32.0,86,64,54,30.11,29.74,18,2,19,0.00
2012-12-20,53.1,46.0,41.7,50.7,37.4,32.5,93,72,54,30.14,29.38,19,2,19,0.54
2012-12-21,58.6,44.9,39.6,55.9,31.9,22.1,92,61,47,29.50,29.18,25,7,27,0.25
2012-12-22,43.5,39.7,35.4,26.1,22.8,20.8,60,51,41,29.98,29.49,30,7,30,0.00
2012-12-23,47.7,40.6,33.3,34.9,25.1,19.6,78,55,35,30.01,29.85,18,2,18,0.00
2012-12-24,42.3,37.7,33.8,36.3,31.8,26.2,94,80,60,30.04,29.84,11,1,11,0.15
2012-12-25,50.0,42.1,35.2,40.3,35.0,30.7,96,77,52,30.20,29.84,15,2,15,0.00
2012-12-26,45.3,36.9,32.2,43.9,33.2,27.3,95,87,69,30.20,29.32,21,5,22,1.40
2012-12-27,42.1,38.8,37.2,35.6,29.7,25.7,93,70,56,29.96,29.34,28,6,28,0.01
2012-12-28,43.5,39.0,36.1,31.5,27.9,26.2,76,64,54,30.09,29.95,12,2,13,0.00
2012-12-29,44.4,39.6,36.0,39.2,33.1,28.0,94,78,62,29.98,29.50,26,2,27,0.18
2012-12-30,40.5,38.0,32.7,28.0,22.7,19.2,65,54,44,30.27,29.75,33,7,33,0.00
2012-12-31,44.1,38.1,32.2,31.5,24.8,20.8,72,59,47,30.27,29.93,12,3,12,0.00
2013-1-1,47.3,43.6,39.9,33.4,29.2,24.3,66,57,47,29.96,29.83,13,2,13,0.00